Temp
-15 -15 -15 -15 -15 -15 -15 -15 -15 -15 -15 -15 -14 -15 -15 -15 -14 -14 -14 -14 -13 -13 -12 -12 -12 -12 -12 -11 -11 -11 -11 -11 -10 -10 -10 -10 -10 -10 -10 -10 -10 -10 -10
-15 -15 -15 -15 -15 -15 -15 -14 -14 -15 -15 -15 -15 -15 -15 -14 -14 -14 -14 -14 -13 -13 -12 -12 -12 -12 -11 -11 -11 -12 -12 -12 -11 -10 -10 -10 -10 -11 -11 -10 -10 -10 -11
-14 -14 -14 -15 -15 -15 -15 -15 -15 -15 -15 -15 -15 -15 -15 -15 -15 -15 -14 -13 -12 -12 -12 -12 -12 -12 -12 -12 -12 -12 -12 -12 -12 -11 -11 -11 -11 -11 -11 -11 -11 -11 -11
-14 -14 -15 -15 -15 -15 -15 -15 -15 -14 -15 -15 -15 -14 -14 -14 -14 -13 -12 -12 -12 -12 -12 -12 -12 -12 -12 -12 -12 -12 -12 -12 -12 -12 -12 -11 -11 -12 -11 -11 -11 -11 -11
-14 -14 -14 -14 -15 -14 -14 -15 -14 -14 -15 -14 -15 -15 -14 -14 -13 -12 -12 -12 -12 -12 -12 -12 -12 -12 -12 -12 -12 -12 -12 -12 -12 -12 -12 -11 -11 -11 -12 -11 -11 -11 -11
-14 -14 -14 -14 -14 -15 -14 -14 -14 -14 -14 -14 -14 -13 -13 -13 -13 -12 -12 -12 -12 -13 -13 -12 -12 -12 -12 -12 -13 -13 -13 -13 -13 -13 -12 -12 -12 -11 -12 -11 -11 -11 -11
-14 -14 -14 -14 -14 -14 -14 -14 -14 -13 -13 -13 -13 -12 -12 -12 -12 -12 -12 -13 -13 -13 -12 -12 -12 -12 -13 -13 -14 -14 -14 -15 -15 -15 -14 -14 -13 -12 -12 -12 -12 -11 -11
-14 -14 -14 -14 -14 -14 -14 -13 -13 -13 -13 -13 -13 -12 -12 -13 -13 -13 -13 -13 -13 -13 -13 -12 -13 -13 -14 -14 -14 -15 -15 -15 -16 -16 -15 -16 -16 -14 -14 -13 -12 -12 -11
-14 -14 -14 -14 -14 -14 -14 -14 -13 -13 -13 -13 -13 -13 -13 -13 -13 -13 -13 -13 -13 -13 -13 -14 -13 -14 -14 -14 -15 -15 -15 -16 -16 -17 -17 -17 -16 -16 -16 -15 -14 -13 -12
-15 -15 -15 -15 -15 -15 -15 -14 -14 -14 -14 -13 -14 -13 -13 -13 -13 -13 -13 -14 -14 -14 -14 -14 -14 -14 -14 -14 -15 -15 -16 -16 -17 -18 -17 -17 -17 -17 -17 -16 -15 -14 -14
-15 -16 -16 -16 -15 -15 -15 -15 -15 -14 -14 -14 -14 -13 -13 -13 -13 -14 -14 -15 -14 -14 -14 -15 -14 -14 -14 -15 -16 -16 -16 -16 -17 -18 -18 -18 -19 -20 -19 -17 -16 -16 -16
-16 -16 -16 -16 -15 -15 -15 -15 -15 -14 -14 -14 -13 -13 -13 -13 -14 -15 -15 -15 -15 -15 -15 -15 -15 -15 -15 -15 -16 -16 -15 -16 -17 -17 -18 -18 -19 -19 -18 -17 -17 -16 -16
-16 -16 -16 -16 -16 -15 -15 -15 -14 -14 -14 -13 -13 -13 -14 -14 -15 -15 -16 -16 -16 -16 -16 -16 -15 -16 -16 -16 -16 -15 -15 -16 -16 -17 -17 -18 -19 -19 -19 -18 -17 -17 -17
-16 -16 -16 -16 -15 -15 -15 -15 -14 -14 -13 -13 -13 -14 -14 -15 -15 -16 -16 -16 -16 -16 -16 -16 -16 -15 -16 -17 -16 -15 -15 -16 -16 -16 -16 -17 -18 -18 -18 -18 -18 -17 -17
-16 -16 -16 -16 -16 -15 -15 -14 -14 -14 -13 -13 -14 -14 -15 -16 -16 -16 -16 -16 -16 -17 -16 -16 -16 -16 -17 -16 -16 -16 -15 -15 -15 -15 -15 -16 -17 -17 -18 -18 -18 -18 -17
-16 -16 -16 -16 -16 -15 -15 -14 -14 -13 -13 -14 -14 -15 -16 -16 -16 -16 -16 -16 -17 -17 -17 -17 -17 -16 -16 -16 -16 -16 -16 -15 -15 -15 -15 -16 -16 -17 -17 -17 -17 -17 -17
-16 -16 -16 -16 -16 -16 -15 -14 -14 -13 -14 -15 -15 -16 -16 -16 -16 -16 -17 -17 -17 -17 -17 -17 -16 -16 -16 -16 -16 -16 -15 -15 -15 -14 -15 -15 -16 -16 -17 -17 -17 -17 -17
-16 -16 -16 -16 -16 -15 -15 -14 -14 -14 -15 -16 -16 -16 -16 -16 -16 -16 -17 -16 -17 -17 -17 -16 -16 -16 -15 -16 -15 -15 -15 -15 -14 -14 -14 -15 -16 -17 -17 -17 -17 -16 -15
-16 -16 -16 -16 -16 -16 -15 -15 -14 -15 -16 -16 -17 -17 -16 -15 -16 -16 -17 -16 -17 -17 -17 -16 -16 -16 -16 -15 -15 -15 -15 -15 -15 -14 -14 -15 -15 -15 -15 -16 -15 -14 -14
-16 -16 -16 -16 -16 -16 -16 -15 -15 -15 -16 -16 -17 -17 -16 -15 -16 -16 -17 -17 -17 -16 -16 -16 -16 -16 -16 -16 -16 -15 -15 -15 -15 -15 -15 -15 -15 -15 -14 -13 -14 -14 -14
-16 -16 -16 -16 -16 -16 -16 -16 -15 -15 -16 -17 -17 -17 -16 -16 -15 -16 -16 -16 -16 -16 -16 -16 -16 -16 -16 -16 -16 -15 -15 -15 -15 -14 -14 -15 -15 -15 -15 -14 -14 -14 -14
-16 -16 -16 -16 -16 -16 -16 -16 -16 -15 -16 -16 -16 -16 -17 -16 -15 -16 -16 -16 -17 -17 -16 -16 -16 -16 -16 -16 -16 -16 -16 -16 -15 -15 -14 -14 -14 -15 -15 -15 -15 -15 -15
-16 -16 -16 -16 -16 -16 -16 -17 -16 -16 -16 -16 -16 -16 -17 -17 -16 -15 -16 -16 -17 -16 -17 -16 -16 -17 -16 -17 -16 -16 -16 -16 -16 -16 -15 -15 -15 -15 -15 -15 -15 -15 -16
-17 -17 -17 -17 -17 -17 -17 -17 -17 -16 -16 -16 -17 -17 -17 -17 -17 -17 -16 -16 -17 -17 -16 -17 -16 -16 -16 -16 -16 -17 -17 -16 -16 -16 -16 -16 -16 -16 -16 -16 -16 -16 -17
-19 -19 -18 -18 -18 -18 -17 -17 -17 -17 -16 -16 -17 -17 -17 -17 -17 -17 -16 -16 -17 -17 -17 -17 -16 -16 -16 -16 -16 -16 -17 -17 -17 -17 -16 -16 -16 -16 -16 -16 -16 -16 -16
-20 -19 -19 -19 -19 -18 -18 -18 -17 -18 -17 -17 -17 -17 -17 -17 -17 -17 -17 -17 -16 -17 -17 -17 -17 -16 -16 -16 -16 -16 -16 -16 -16 -16 -16 -16 -16 -16 -16 -16 -16 -16 -16
Height
5742 5744 5742 5741 5740 5738 5736 5735 5733 5732 5731 5728 5724 5720 5717 5715 5714 5712 5706 5700 5697 5694 5690 5691 5688 5686 5681 5679 5676 5674 5671 5673 5676 5680 5678 5679 5681 5683 5685 5687 5690 5694 5696
5735 5734 5734 5733 5731 5729 5728 5726 5723 5722 5719 5716 5714 5711 5709 5707 5703 5698 5692 5687 5684 5682 5677 5675 5674 5671 5668 5664 5660 5659 5657 5655 5657 5662 5662 5664 5665 5667 5670 5674 5677 5682 5686
5725 5724 5724 5722 5719 5717 5716 5714 5712 5710 5707 5703 5699 5697 5695 5693 5688 5681 5675 5672 5670 5662 5660 5662 5660 5656 5653 5649 5645 5643 5640 5639 5641 5643 5645 5647 5650 5652 5656 5659 5664 5669 5673
5713 5712 5711 5710 5709 5707 5705 5703 5701 5698 5695 5691 5687 5683 5679 5674 5670 5664 5661 5658 5656 5655 5653 5650 5646 5642 5639 5634 5628 5624 5623 5622 5623 5624 5626 5629 5632 5637 5639 5643 5649 5655 5660
5702 5701 5700 5698 5697 5695 5693 5691 5687 5684 5681 5677 5675 5671 5667 5663 5659 5656 5652 5650 5648 5646 5643 5638 5633 5627 5620 5614 5608 5605 5601 5600 5600 5602 5606 5608 5612 5617 5621 5625 5633 5639 5646
5692 5691 5689 5689 5687 5684 5682 5679 5676 5673 5670 5667 5664 5660 5656 5653 5648 5645 5641 5639 5637 5632 5627 5622 5615 5608 5600 5594 5587 5580 5575 5572 5573 5573 5578 5582 5588 5592 5599 5606 5614 5622 5632
5684 5682 5680 5678 5675 5673 5671 5668 5665 5662 5658 5655 5652 5648 5644 5640 5636 5633 5631 5628 5624 5619 5613 5606 5599 5592 5585 5577 5569 5563 5556 5549 5546 5544 5548 5552 5558 5564 5572 5582 5593 5603 5614
5674 5671 5669 5667 5664 5662 5660 5657 5653 5650 5647 5644 5640 5637 5633 5630 5627 5624 5621 5617 5612 5606 5598 5590 5584 5577 5569 5561 5554 5546 5539 5534 5528 5525 5526 5527 5530 5535 5543 5555 5569 5583 5596
5662 5660 5657 5655 5653 5650 5648 5645 5642 5640 5637 5634 5630 5627 5624 5621 5618 5614 5610 5604 5598 5591 5583 5577 5572 5565 5556 5548 5540 5532 5525 5518 5512 5506 5504 5503 5504 5507 5516 5529 5547 5563 5579
5651 5649 5646 5644 5643 5641 5638 5635 5633 5630 5627 5624 5621 5618 5616 5613 5608 5603 5596 5590 5584 5579 5574 5568 5561 5553 5545 5538 5532 5523 5515 5507 5500 5492 5489 5486 5483 5483 5492 5512 5528 5546 5563
5641 5639 5636 5634 5632 5631 5629 5626 5623 5621 5619 5617 5615 5611 5607 5602 5597 5590 5583 5578 5574 5569 5565 5559 5553 5546 5539 5533 5524 5515 5507 5500 5493 5487 5482 5476 5471 5468 5479 5499 5516 5535 5551
5631 5628 5625 5623 5621 5620 5619 5616 5615 5614 5613 5610 5607 5602 5597 5592 5585 5578 5571 5567 5564 5561 5558 5553 5548 5542 5535 5529 5520 5509 5502 5497 5490 5484 5480 5476 5473 5473 5482 5496 5510 5527 5543
5620 5617 5615 5612 5611 5610 5609 5608 5608 5608 5606 5602 5599 5594 5588 5581 5574 5568 5563 5560 5558 5556 5553 5551 5547 5541 5531 5524 5516 5507 5500 5495 5489 5484 5480 5479 5479 5480 5485 5495 5507 5521 5534
5610 5607 5605 5602 5601 5600 5600 5602 5602 5602 5599 5596 5592 5586 5579 5573 5568 5564 5561 5559 5556 5554 5553 5550 5544 5537 5529 5521 5515 5508 5501 5495 5490 5484 5482 5480 5480 5485 5490 5497 5507 5517 5530
5602 5600 5598 5597 5595 5594 5595 5597 5597 5596 5594 5589 5585 5579 5575 5570 5567 5564 5561 5559 5557 5555 5552 5549 5545 5538 5531 5525 5516 5509 5500 5495 5491 5488 5482 5480 5481 5484 5490 5498 5507 5517 5529
5597 5596 5594 5592 5591 5591 5592 5594 5594 5592 5588 5585 5581 5576 5572 5571 5569 5567 5565 5561 5558 5556 5554 5550 5548 5542 5535 5527 5520 5513 5505 5499 5494 5488 5484 5482 5484 5488 5492 5499 5509 5520 5532
5594 5592 5591 5591 5589 5590 5590 5591 5591 5587 5584 5582 5578 5575 5574 5575 5572 5569 5568 5562 5560 5558 5555 5555 5551 5546 5540 5532 5527 5521 5512 5506 5498 5496 5494 5492 5491 5493 5500 5507 5515 5526 5538
5592 5591 5590 5590 5589 5589 5589 5589 5587 5583 5581 5580 5578 5576 5575 5577 5575 5572 5570 5567 5565 5561 5560 5557 5554 5551 5545 5540 5536 5531 5524 5517 5513 5509 5506 5506 5506 5510 5512 5518 5526 5537 5547
5590 5590 5589 5589 5588 5588 5588 5587 5584 5581 5579 5579 5579 5579 5577 5579 5578 5575 5572 5571 5568 5566 5563 5560 5558 5554 5552 5550 5544 5540 5535 5530 5526 5524 5521 5520 5521 5525 5530 5534 5541 5549 5556
5589 5588 5588 5587 5586 5586 5586 5585 5583 5580 5578 5578 5578 5579 5578 5579 5580 5578 5577 5575 5572 5572 5570 5568 5563 5559 5556 5556 5552 5548 5546 5543 5539 5537 5536 5535 5538 5541 5545 5550 5556 5561 5563
5586 5586 5586 5585 5585 5585 5584 5583 5581 5578 5577 5576 5576 5577 5577 5579 5580 5580 5579 5578 5576 5575 5574 5572 5569 5566 5565 5562 5559 5556 5554 5553 5552 5550 5551 5551 5552 5553 5556 5559 5564 5566 5572
5583 5584 5583 5583 5582 5582 5582 5581 5579 5577 5575 5574 5574 5574 5575 5577 5578 5580 5580 5579 5578 5578 5577 5577 5575 5572 5571 5568 5567 5564 5562 5561 5563 5563 5562 5562 5563 5565 5567 5569 5572 5576 5579
5580 5580 5580 5580 5579 5579 5579 5578 5577 5575 5572 5570 5571 5572 5573 5574 5576 5577 5579 5580 5579 5579 5580 5579 5578 5577 5575 5573 5572 5571 5570 5569 5569 5569 5571 5571 5570 5572 5575 5577 5578 5581 5584
5576 5576 5577 5577 5577 5576 5576 5575 5575 5573 5570 5568 5567 5569 5570 5571 5573 5574 5576 5578 5580 5581 5580 5579 5579 5578 5579 5578 5576 5577 5576 5576 5576 5576 5577 5579 5579 5580 5582 5584 5586 5588 5590
5574 5574 5574 5574 5574 5573 5573 5571 5571 5570 5568 5566 5564 5565 5567 5568 5569 5571 5572 5576 5577 5579 5580 5580 5578 5578 5578 5579 5579 5579 5579 5579 5579 5580 5581 5583 5585 5586 5587 5589 5590 5592 5595
5571 5571 5571 5571 5570 5570 5568 5567 5567 5567 5566 5564 5563 5563 5563 5565 5566 5568 5569 5570 5574 5576 5577 5578 5578 5578 5579 5579 5580 5580 5581 5581 5581 5582 5583 5585 5587 5588 5589 5590 5592 5593 5594
Wind_Speed
31 30 33 35 39 40 41 45 47 49 50 52 51 48 46 48 49 50 52 52 52 53 53 54 55 55 55 54 53 54 53 55 53 50 49 48 48 42 39 41 43 43 44
36 38 40 41 42 44 46 49 52 54 54 54 52 48 48 49 51 53 54 55 56 56 54 57 58 58 57 57 54 53 52 51 51 52 51 50 50 45 41 41 44 43 41
40 40 42 42 43 43 44 46 48 50 51 52 52 53 53 54 57 58 59 58 57 55 54 56 56 58 59 58 56 54 53 53 52 51 49 48 49 47 45 43 44 43 41
40 41 42 42 44 47 49 49 52 52 51 51 53 54 55 56 57 57 56 54 55 56 54 57 58 57 56 56 57 58 59 59 59 57 55 53 52 49 49 47 46 45 43
44 46 47 47 47 48 49 51 50 50 51 51 51 52 53 54 54 53 55 55 50 50 51 53 54 57 59 60 62 63 65 65 65 64 62 61 59 56 55 53 49 48 46
40 43 44 43 45 48 50 49 48 48 49 48 48 48 49 51 52 52 50 47 47 49 51 55 56 59 63 62 60 63 65 66 65 64 61 63 67 64 63 61 58 55 51
41 42 44 46 46 47 46 46 47 47 47 46 46 47 47 48 47 44 45 45 48 51 52 55 58 56 55 58 58 57 55 54 56 60 62 63 65 68 71 67 64 60 56
42 44 45 44 44 44 44 45 46 46 47 46 44 44 44 41 41 41 44 47 49 50 53 53 48 50 50 48 46 43 43 45 49 48 48 50 56 63 73 73 70 63 59
41 41 41 41 41 41 41 41 43 43 43 44 42 39 37 37 40 43 46 47 49 48 45 44 45 40 39 45 41 40 42 42 45 38 37 41 46 57 64 69 71 70 62
39 39 38 38 37 37 39 40 42 42 41 38 34 32 35 39 42 44 47 49 46 40 39 39 34 38 42 39 41 42 42 43 40 28 27 29 37 47 56 61 62 65 64
41 41 41 40 40 39 40 40 40 38 33 28 28 33 37 40 43 47 47 42 38 35 32 26 33 32 33 32 35 36 33 34 29 23 23 22 21 22 36 50 51 53 56
40 40 39 39 39 39 38 39 35 28 23 26 30 34 38 42 46 46 42 36 30 21 20 27 26 25 29 29 36 33 22 22 20 18 16 12 4 14 21 32 40 44 47
37 35 34 34 36 36 34 30 23 19 22 26 30 34 40 42 37 28 23 19 14 13 18 17 23 29 26 26 31 18 18 15 15 14 10 7 7 14 21 27 31 36 42
32 33 33 31 27 24 20 17 17 18 21 25 30 36 33 18 16 12 10 9 9 10 12 20 29 29 29 24 27 23 16 13 10 10 16 9 8 11 16 22 30 36 38
26 21 19 22 19 13 12 13 11 14 18 26 29 21 14 8 11 13 10 7 10 12 12 19 30 20 21 31 27 34 26 16 7 11 14 8 8 11 16 21 29 31 38
20 17 18 16 14 4 3 4 7 14 19 20 13 8 7 13 17 15 14 16 9 12 14 20 22 24 23 32 23 28 35 26 24 18 12 5 5 12 17 22 32 33 38
16 12 10 6 4 5 7 7 9 13 14 9 6 10 12 15 12 8 19 20 14 12 16 22 21 23 27 31 31 27 32 35 28 22 25 25 19 24 25 27 28 37 40
12 8 6 7 5 4 6 7 9 12 9 8 5 11 9 11 12 14 15 19 27 22 20 23 15 25 34 35 30 32 31 27 24 25 26 31 36 35 35 35 37 38 44
5 4 5 7 6 5 6 7 9 9 7 5 4 9 7 8 6 10 14 14 15 22 24 22 25 33 31 28 30 30 27 28 30 19 22 30 34 39 36 38 38 38 30
8 9 7 6 5 6 8 8 9 8 5 2 3 5 10 6 5 7 7 11 19 20 23 22 21 20 34 20 24 28 30 28 31 30 33 29 23 27 32 29 28 21 11
12 10 6 5 6 7 7 8 9 11 7 3 2 3 8 9 4 3 2 12 12 13 10 11 13 17 20 20 24 25 30 32 22 23 28 33 37 37 31 38 36 22 31
7 6 6 6 8 8 8 7 8 11 11 7 4 4 8 12 11 5 4 6 5 8 12 8 11 10 9 13 16 19 23 27 25 26 24 23 26 26 27 29 29 28 27
8 7 7 9 9 10 9 8 8 10 12 11 8 6 8 12 12 10 9 9 6 7 1 3 2 9 8 11 12 12 16 19 20 22 23 21 23 22 24 22 23 25 27
8 9 9 8 9 10 11 10 8 8 11 11 11 11 9 12 17 15 10 13 11 3 9 5 4 1 5 7 9 9 11 12 13 16 18 18 18 16 16 16 16 18 18
7 8 9 9 9 10 10 11 10 7 9 10 8 14 13 13 18 18 18 19 18 16 10 8 9 6 3 2 3 4 6 7 8 9 11 12 11 10 9 6 5 5 5
7 8 10 10 10 10 12 12 11 9 7 8 7 8 16 15 19 23 25 26 22 18 13 12 15 11 10 7 5 4 3 3 4 3 4 4 6 7 6 4 4 4 5
Wind_Direction
271 273 275 276 278 280 282 283 284 284 284 286 287 287 286 285 286 286 290 293 291 290 290 290 290 290 290 286 285 285 284 283 279 275 271 269 265 257 252 250 249 250 258
273 274 274 273 272 273 275 278 280 281 281 281 279 280 281 283 286 288 291 290 289 288 290 291 290 290 290 288 284 282 280 280 279 274 271 267 262 257 253 246 246 245 249
271 273 273 274 277 279 279 279 281 283 285 286 287 286 285 285 289 293 292 290 289 295 294 292 289 287 286 286 287 286 285 282 278 274 269 265 261 259 256 250 244 245 242
273 273 274 276 277 277 280 285 286 286 285 284 284 285 286 289 291 291 290 290 292 292 289 286 286 286 286 286 285 284 280 276 273 271 269 265 260 257 255 251 248 244 244
274 275 276 277 280 283 283 288 287 288 288 288 289 288 287 286 287 287 286 287 287 285 286 287 288 289 289 288 286 283 280 276 272 267 262 260 259 254 251 250 247 247 244
278 277 279 282 281 282 284 284 285 285 284 285 286 286 285 285 285 285 287 286 290 291 291 294 295 294 294 294 290 286 282 280 274 267 260 255 251 249 246 246 244 245 244
280 280 280 279 279 280 282 283 284 285 287 287 286 286 286 286 287 287 288 292 292 294 297 297 296 298 297 294 293 291 290 285 279 273 266 258 247 243 241 238 238 240 239
280 278 279 280 281 282 283 283 285 286 287 288 289 288 287 287 287 290 291 293 296 298 299 298 302 300 301 303 303 297 294 293 289 282 274 265 258 244 238 234 230 231 233
281 280 280 281 283 284 284 284 285 286 289 290 289 287 287 289 290 292 295 297 299 300 301 302 302 303 308 310 310 307 305 298 308 290 277 270 259 245 236 231 227 224 225
285 285 285 285 284 283 282 285 286 287 287 287 288 289 290 291 293 297 298 300 301 301 300 302 306 312 312 309 312 308 305 303 314 289 283 278 261 251 230 224 223 222 224
284 282 282 281 281 282 282 284 285 287 286 287 289 291 292 296 300 298 301 302 303 300 301 308 313 317 319 324 332 329 313 311 323 308 307 294 274 230 212 213 212 215 218
288 284 282 281 281 281 281 282 285 284 283 288 292 296 300 301 300 306 305 301 300 296 305 312 322 334 330 322 327 330 315 305 324 322 308 303 235 159 177 198 201 206 212
289 285 283 282 282 279 279 281 277 278 287 292 299 302 301 307 311 312 313 308 300 305 316 338 345 346 353 331 329 340 338 324 330 303 307 279 218 180 183 182 194 199 205
291 288 286 285 282 275 270 263 275 285 293 306 304 303 311 312 323 340 356 353 333 327 353 1 356 359 14 21 5 1 348 348 347 316 327 269 219 186 185 185 186 188 191
296 296 298 287 285 276 268 274 280 297 312 302 309 315 317 343 39 36 41 40 357 354 353 348 358 18 16 14 12 15 22 20 3 2 6 324 218 205 201 186 180 181 179
301 297 294 309 297 266 293 308 311 313 304 319 326 328 76 50 78 69 41 6 7 24 357 359 9 19 32 29 27 23 21 26 17 16 28 38 169 156 153 165 175 170 168
302 298 303 302 22 359 326 334 340 316 329 343 352 115 87 63 75 52 35 37 26 20 40 44 58 47 33 30 36 40 41 25 23 71 92 99 110 122 135 139 150 162 162
298 291 295 307 313 340 332 353 336 329 358 3 76 120 103 71 66 42 40 63 59 62 67 60 60 50 56 52 51 45 35 35 58 84 88 79 102 109 118 132 139 144 162
277 274 298 307 307 340 341 360 346 346 355 18 52 156 116 101 79 44 47 99 64 70 67 80 79 65 52 52 52 64 47 48 47 85 98 95 97 106 116 127 131 142 154
275 272 287 309 320 339 343 358 354 345 337 18 58 153 176 131 28 6 49 114 80 73 71 59 65 55 67 41 70 66 61 70 64 74 84 99 105 103 107 114 131 138 149
271 257 262 305 329 333 343 344 356 350 327 305 272 191 166 173 231 289 64 142 63 46 81 45 74 69 64 64 63 60 65 69 81 83 96 93 89 105 114 136 112 126 159
239 251 278 305 324 326 325 332 344 345 331 293 246 224 198 166 152 208 178 132 80 57 52 75 77 66 49 73 60 65 68 72 79 83 102 102 105 105 118 120 120 127 138
290 293 298 304 309 314 315 316 327 334 333 299 263 216 205 189 167 175 199 190 143 38 104 104 70 87 77 71 72 72 73 75 79 79 82 108 127 123 134 139 150 151 142
292 294 294 294 300 305 305 305 313 322 330 320 266 235 222 208 191 186 196 195 158 214 229 237 199 166 87 86 82 93 100 97 96 97 96 97 96 95 97 104 111 125 131
291 286 289 288 291 297 305 313 318 311 318 332 296 233 228 222 207 203 191 192 176 191 205 258 239 217 208 145 76 46 78 96 104 104 113 120 125 129 136 141 148 154 171
295 284 277 278 286 297 304 308 312 322 303 316 322 252 226 231 214 210 201 193 201 203 221 243 238 235 236 241 250 233 208 145 130 133 137 131 149 158 162 178 209 228 239